Weather History for Eureka, NU

Change the Weather History Date:

Monday, November 12, 2012

  Actual Average Record
Temperature  
Mean Temperature -30 °F -  
Max Temperature -24 °F -21 °F 15 °F (1999)
Min Temperature -35 °F -34 °F -41 °F (2004)
Degree Days  
Heating Degree Days 94    
Moisture  
Dew Point -37 °F    
Average Humidity 64    
Maximum Humidity 75    
Minimum Humidity 44    
Precipitation  
Precipitation 0.00 in 0.00 in - ()
Sea Level Pressure  
Sea Level Pressure 29.59 in    
Wind  
Wind Speed 2 mph ()    
Max Wind Speed 5 mph    
Max Gust Speed -    
Visibility 13.6 miles    
Events Snow    
Averages and records for this station are not official NWS values.
T = Trace of Precipitation, MM = Missing Value Source: Averaged Metar Reports

Daily Weather History Graph

Daily Weather History Graph

Search for Another Location

Airport:

Trip Planner

Search our weather history database for the weather conditions in past years. The results will help you decide how hot, cold, wet, or windy it might be!

Date:

Astronomy

Dec. 31, 1969 Rise Set
Actual Time Sun does not rise Sun does not rise
Civil Twilight Sun does not rise Sun does not rise
Nautical Twilight 7:47 AM CST 3:06 PM CST
Astronomical Twilight 5:18 AM CST 5:34 PM CST
Moon No Moon Rise No Moon Set
Length of Visible Light 0h 00m
Length of Day
0h 00m
Waning Crescent, 2% of the Moon is Illuminated
Nov 12
Waning Crescent
Nov 13
New
Nov 20
First Quarter
Nov 28
Full
Dec 6
Last Quarter

Hourly Weather History & Observations

Time (CST) Temp. Windchill Dew Point Humidity Pressure Visibility Wind Dir Wind Speed Gust Speed Precip Events Conditions
12:00 AM -30 °F - -38 °F 48% 29.60 in 6 mi ESE 4.6 mph - - Snow Snow
12:00 AM -29.2 °F -44.0 °F -38.2 °F 62% 29.60 in 6.0 mi ESE 4.6 mph - N/A   Ice Crystals
1:00 AM -29.2 °F - -36.4 °F 68% 29.59 in 5.0 mi ENE 2.3 mph - N/A   Ice Crystals
2:00 AM -27.4 °F -39.2 °F -36.4 °F 62% 29.60 in 6.0 mi ESE 3.5 mph - N/A   Ice Crystals
3:00 AM -27.4 °F - -34.6 °F 69% 29.60 in 15.0 mi East 2.3 mph - N/A   Clear
4:00 AM -29.2 °F - -38.2 °F 62% 29.60 in 15.0 mi Calm Calm - N/A   Clear
5:00 AM -32.8 °F - -40.0 °F 68% 29.58 in 15.0 mi ESE 2.3 mph - N/A   Clear
6:00 AM -30 °F - -39 °F 44% 29.59 in 15 mi SE 2.3 mph - - Snow Snow
6:00 AM -29.2 °F - -38.2 °F 62% 29.59 in 15.0 mi Calm Calm - N/A   Clear
7:00 AM -29.2 °F - -36.4 °F 68% 29.59 in 15.0 mi East 2.3 mph - N/A   Clear
8:00 AM -31.0 °F - -38.2 °F 68% 29.58 in 15.0 mi Calm Calm - N/A   Partly Cloudy
9:00 AM -29.2 °F - -36.4 °F 68% 29.58 in 15.0 mi East 2.3 mph - N/A   Partly Cloudy
10:00 AM -29.2 °F - -38.2 °F 62% 29.59 in 15.0 mi SE 2.3 mph - N/A   Partly Cloudy
11:00 AM -32.8 °F - -38.2 °F 75% 29.59 in 15.0 mi Calm Calm - N/A   Partly Cloudy
12:00 PM -30 °F - -37 °F 52% 29.59 in 15 mi East 2.3 mph - - Snow Snow
12:00 PM -29.2 °F - -36.4 °F 68% 29.59 in 15.0 mi Calm Calm - N/A   Partly Cloudy
1:00 PM -27.4 °F - -34.6 °F 69% 29.59 in 15.0 mi Calm Calm - N/A   Clear
2:00 PM -27.4 °F - -36.4 °F 62% 29.59 in 15.0 mi East 2.3 mph - N/A   Clear
3:00 PM -25.6 °F - -32.8 °F 69% 29.59 in 15.0 mi Calm Calm - N/A   Clear
4:00 PM -25.6 °F - -34.6 °F 63% 29.58 in 15.0 mi Calm Calm - N/A   Clear
5:00 PM -27.4 °F - -34.6 °F 69% 29.59 in 15.0 mi Calm Calm - N/A   Clear
6:00 PM -27 °F - -35 °F 50% 29.59 in 15 mi Calm Calm - - Snow Snow
6:00 PM -27.4 °F - -34.6 °F 69% 29.59 in 15.0 mi Calm Calm - N/A   Clear
7:00 PM -29.2 °F - -36.4 °F 68% 29.58 in 15.0 mi Calm Calm - N/A   Clear
8:00 PM -31.0 °F - -38.2 °F 68% 29.58 in 15.0 mi ESE 2.3 mph - N/A   Clear
9:00 PM -29.2 °F - -38.2 °F 62% 29.57 in 15.0 mi ESE 2.3 mph - N/A   Clear